EW4071 Weather Reports


Display with metric or nautical units.
time (UTC)temp
F
wind
direction
speed
MPH
gust
MPH
rain 1hr
in
rain 24hr
in
rain mn
in
humidity
%
barometer
mb
20260904014542 87 159 0.0 0.0 0.00 0.00 0.00 61 1007.3
20260904013036 88 136 0.0 11.0 0.00 0.00 0.00 59 1007.1
20260904011538 88 140 6.0 11.0 0.00 0.00 0.00 58 1007.0
20260904010045 89 148 3.0 13.0 0.00 0.00 0.00 58 1006.9
20260904004534 90 133 7.0 14.0 0.00 0.00 0.00 57 1006.7
20260904003033 91 153 9.0 14.0 0.00 0.00 0.00 56 1006.6
20260904001539 91 205 7.0 12.0 0.00 0.00 0.00 54 1006.6
20260904000040 92 150 10.0 15.0 0.00 0.00 0.00 53 1006.5
20260903234531 93 145 11.0 18.0 0.00 0.00 0.00 52 1006.4
20260903233030 94 190 9.0 16.0 0.00 0.00 0.00 52 1006.2
20260903231530 95 168 8.0 15.0 0.00 0.00 0.00 50 1006.0
20260903230029 95 211 12.0 19.0 0.00 0.00 0.00 48 1005.9
20260903224528 96 151 4.0 13.0 0.00 0.00 0.00 48 1005.9
20260903223034 96 145 9.0 16.0 0.00 0.00 0.00 46 1005.9
20260903221527 97 127 10.0 16.0 0.00 0.00 0.00 44 1006.0
20260903220026 97 161 8.0 16.0 0.00 0.00 0.00 43 1005.9
20260903214524 97 150 11.0 16.0 0.00 0.00 0.00 43 1006.1
20260903213023 97 142 8.0 15.0 0.00 0.00 0.00 42 1006.1
20260903211522 97 140 3.0 12.0 0.00 0.00 0.00 43 1006.2
20260903210021 97 135 11.0 17.0 0.00 0.00 0.00 44 1006.3
20260903204517 97 142 7.0 16.0 0.00 0.00 0.00 44 1006.6
20260903203021 97 184 8.0 16.0 0.00 0.00 0.00 44 1006.8
20260903201513 97 144 8.0 16.0 0.00 0.00 0.00 45 1006.9
20260903200011 96 189 5.0 16.0 0.00 0.00 0.00 45 1007.0
20260903194506 96 112 6.0 18.0 0.00 0.00 0.00 47 1007.2
20260903193004 96 208 10.0 15.0 0.00 0.00 0.00 48 1007.5
20260903191601 95 190 8.0 16.0 0.00 0.00 0.00 48 1007.6
20260903190057 95 154 7.0 15.0 0.00 0.00 0.00 47 1007.8
20260903184553 94 132 8.0 16.0 0.00 0.00 0.00 50 1008.0
20260903183049 93 157 11.0 16.0 0.00 0.00 0.00 50 1008.3
20260903181545 93 166 6.0 15.0 0.00 0.00 0.00 53 1008.5
20260903180043 92 157 7.0 14.0 0.00 0.00 0.00 53 1008.7
20260903174542 92 172 8.0 16.0 0.00 0.00 0.00 54 1008.9
20260903173042 91 191 9.0 16.0 0.00 0.00 0.00 55 1009.2
20260903171537 90 206 10.0 14.0 0.00 0.00 0.00 57 1009.4
20260903170036 89 131 10.0 16.0 0.00 0.00 0.00 60 1009.6
20260903164532 88 149 10.0 20.0 0.00 0.00 0.00 61 1009.7
20260903163029 87 136 9.0 13.0 0.00 0.00 0.00 63 1009.8
20260903161526 87 158 9.0 15.0 0.00 0.00 0.00 64 1009.6
20260903160050 86 167 10.0 15.0 0.00 0.00 0.00 66 1009.8
20260903154522 85 159 9.0 14.0 0.00 0.00 0.00 67 1009.8
20260903153022 85 168 9.0 17.0 0.00 0.00 0.00 69 1010.0
20260903151523 84 167 10.0 16.0 0.00 0.00 0.00 70 1010.0
20260903150025 83 148 11.0 15.0 0.00 0.00 0.00 71 1010.1
20260903144517 82 213 9.0 14.0 0.00 0.00 0.00 71 1010.3
20260903143023 82 155 7.0 13.0 0.00 0.00 0.00 73 1010.3
20260903141515 81 164 7.0 15.0 0.00 0.00 0.00 75 1010.3
20260903140011 79 147 10.0 17.0 0.00 0.00 0.00 76 1010.5
20260903134511 79 130 4.0 14.0 0.00 0.00 0.00 78 1010.5
20260903133011 78 147 0.0 13.0 0.00 0.00 0.00 79 1010.5
20260903131510 77 151 1.0 10.0 0.00 0.00 0.00 80 1010.5
20260903130010 77 139 0.0 5.0 0.00 0.00 0.00 81 1010.6
20260903124508 76 162 1.0 9.0 0.00 0.00 0.00 81 1010.4
20260903123006 76 148 0.0 0.0 0.00 0.00 0.00 82 1010.4
20260903121505 76 151 0.0 0.0 0.00 0.00 0.00 81 1010.2
20260903120004 76 152 0.0 0.0 0.00 0.00 0.00 81 1010.1
20260903114602 76 153 0.0 5.0 0.00 0.00 0.00 80 1009.7
20260903113057 77 155 0.0 3.0 0.00 0.00 0.00 79 1009.7
20260903111556 77 125 0.0 0.0 0.00 0.00 0.00 78 1009.6
20260903110052 77 161 0.0 0.0 0.00 0.00 0.00 77 1009.4
20260903104551 78 150 0.0 0.0 0.00 0.00 0.00 77 1009.4
20260903103046 78 149 0.0 2.0 0.00 0.00 0.00 75 1009.3
20260903101546 79 159 0.0 0.0 0.00 0.00 0.00 74 1009.3
20260903100040 79 157 0.0 2.0 0.00 0.00 0.00 73 1009.3
20260903094538 79 154 0.0 0.0 0.00 0.00 0.00 72 1009.2
20260903093042 80 147 0.0 0.0 0.00 0.00 0.00 71 1009.1
20260903091531 80 150 0.0 0.0 0.00 0.00 0.00 70 1009.1
20260903090033 80 137 0.0 0.0 0.00 0.00 0.00 69 1009.0
20260903084527 81 154 0.0 10.0 0.00 0.00 0.00 68 1008.9
20260903083126 81 135 0.0 10.0 0.00 0.00 0.00 68 1009.0
20260903081524 82 148 0.0 6.0 0.00 0.00 0.00 67 1008.9
20260903080029 82 154 4.0 10.0 0.00 0.00 0.00 67 1008.9
20260903074521 82 151 0.0 2.0 0.00 0.00 0.00 65 1009.1
20260903073028 83 154 7.0 11.0 0.00 0.00 0.00 64 1009.1
20260903071530 83 157 7.0 12.0 0.00 0.00 0.00 63 1009.1
20260903070016 83 162 7.0 11.0 0.00 0.00 0.00 62 1009.0
20260903064514 84 154 9.0 14.0 0.00 0.00 0.00 61 1008.9
20260903063014 84 152 8.0 14.0 0.00 0.00 0.00 59 1009.0
20260903061514 84 156 3.0 12.0 0.00 0.00 0.00 58 1008.9
20260903060013 84 161 1.0 8.0 0.00 0.00 0.00 57 1008.8
20260903054508 85 155 1.0 11.0 0.00 0.00 0.00 56 1008.8
20260903053006 85 146 0.0 8.0 0.00 0.00 0.00 55 1008.8
20260903051502 84 161 0.0 0.0 0.00 0.00 0.00 57 1008.7
20260903050100 83 158 0.0 0.0 0.00 0.00 0.00 58 1008.6
20260903044559 83 147 0.0 0.0 0.00 0.00 0.00 57 1008.6
20260903043057 84 145 0.0 0.0 0.00 0.00 0.00 56 1008.6
20260903041557 85 126 0.0 0.0 0.00 0.00 0.00 55 1008.7
20260903040057 85 123 0.0 0.0 0.00 0.00 0.00 54 1008.7
20260903034601 86 149 0.0 6.0 0.00 0.00 0.00 52 1008.7
20260903033107 86 140 0.0 1.0 0.00 0.00 0.00 51 1008.8
20260903031631 87 122 0.0 3.0 0.00 0.00 0.00 49 1008.8
20260903030055 88 123 0.0 0.0 0.00 0.00 0.00 48 1008.7
20260903024554 89 121 0.0 1.0 0.00 0.00 0.00 46 1008.5
20260903023048 90 123 2.0 8.0 0.00 0.00 0.00 44 1008.4
20260903021548 90 134 0.0 1.0 0.00 0.00 0.00 44 1008.1
20260903020051 90 147 0.0 1.0 0.00 0.00 0.00 44 1008.0